Overview Statistics Trail Chart Weather Telemetry Raw packets
 

This is the latest recevied weather packets stored in our database for station/object KG5CK-1. If no packets are shown the sender has not sent any weather packets the latest 10 day(s).

<< 56 57 58 59 60 61 62 >>
Time Temp. Humidity Pressure Rain* Wind** Luminosity Snow
1788637983 37.22° C 45% 1008.3 hPa 0 mm 2.24 m/s, 127° - -
1788637923 37.22° C 45% 1008.3 hPa 0 mm 2.24 m/s, 127° - -
1788637862 37.22° C 45% 1008.3 hPa 0 mm 2.24 m/s, 127° - -
1788637802 37.22° C 43% 1008.4 hPa 0 mm 0.89 m/s, 214° - -
1788637742 37.22° C 43% 1008.4 hPa 0 mm 0.89 m/s, 214° - -
1788637682 37.22° C 43% 1008.4 hPa 0 mm 0.89 m/s, 214° - -
1788637622 37.22° C 43% 1008.4 hPa 0 mm 0.89 m/s, 214° - -
1788637562 37.22° C 43% 1008.4 hPa 0 mm 0.89 m/s, 214° - -
1788637503 36.67° C 43% 1008.5 hPa 0 mm 0.45 m/s, 67° - -
1788637442 36.67° C 43% 1008.5 hPa 0 mm 0.45 m/s, 67° - -
1788637383 36.67° C 43% 1008.5 hPa 0 mm 0.45 m/s, 67° - -
1788637322 36.67° C 43% 1008.5 hPa 0 mm 0.45 m/s, 67° - -
1788637262 36.67° C 43% 1008.5 hPa 0 mm 0.45 m/s, 67° - -
1788637202 37.22° C 45% 1008.6 hPa 0 mm 1.34 m/s, 163° - -
1788637143 37.22° C 45% 1008.6 hPa 0 mm 1.34 m/s, 163° - -
1788637082 37.22° C 45% 1008.6 hPa 0 mm 1.34 m/s, 163° - -
1788637022 37.22° C 45% 1008.6 hPa 0 mm 1.34 m/s, 163° - -
1788636987 37.22° C 45% 1008.6 hPa 0 mm 1.34 m/s, 163° - -
1788636902 37.22° C 44% 1008.6 hPa 0 mm 2.68 m/s, 75° - -
1788636843 37.22° C 44% 1008.6 hPa 0 mm 2.68 m/s, 75° - -
1788636782 37.22° C 44% 1008.6 hPa 0 mm 2.68 m/s, 75° - -
1788636723 37.22° C 44% 1008.6 hPa 0 mm 2.68 m/s, 75° - -
1788636663 37.22° C 44% 1008.6 hPa 0 mm 2.68 m/s, 75° - -
1788636603 36.67° C 45% 1008.8 hPa 0 mm 0.89 m/s, 126° - -
1788636543 36.67° C 45% 1008.8 hPa 0 mm 0.89 m/s, 126° - -

* Rain latest hour (hover to see other rain measurements)
** Current wind speed in m/s (hover to see current wind gust speed)